FREGAT DEB, 45638

Orbit data source: Space-Track

FREGAT DEB, 45638 is space debris in LEO originally from a launch on Mon, 18 Jul 2011 UTC launched from the Tyuratam Missile And Space Complex (TTMTR). Debris objects in space refer to the collection of defunct objects orbiting the Earth. Examples of debris include non-operational satellites, rocket bodies, and fragments generated from explosions, collisions, or faulty payload assembly.

Loading next visibility...
Identifier
45638, 2011-037AE
Orbit
LEO
Last TLE update
6 hours ago
Origin
Manufacturer
Lavochkin
Mission
Spacecraft
Bus & Motor
Unknown
Mass
Unknown
Launch date (UTC)
2011-07-18 (14 years ago)
Launch vehicle
Unknown
Launch site
Tyuratam Missile And Space Complex (TTMTR)
Object type
Payload
Rocket body
Debris
Shape & HBR
Unknown
Radar Cross Section
Small (<0.1 m²)

Expand to show TLE details & history

TLE from 6 hours ago
0 FREGAT DEB
1 45638U 11037AE  25134.13380211  .00025507  00000-0  19095-2 0  9997
2 45638  51.4155  40.0887 1317051 243.8746 102.0915 12.70097724213371
Epoch: 2025-05-14T03:12Z
Definitive object data (Epoch: 2025-05-14T03:12:40.502Z)
Latitude
-0.00002°
Longitude
119.79738°
Altitude
1,718.499 km
Speed
6.865 km/s
True Right ascension
02h 40m 21s
True Declination
0° 00' 00"
Sunlit
Object was in daylight at TLE epoch
Visualization TLE readout
Latitude
9.57845°
Longitude
126.72456°
Altitude
1,917.133 km
Speed
6.691 km/s
Apparent Right ascension
03h 59m 10s
Apparent Declination
-12° 08' 59"
Sunlit
Object is in daylight
Visualization observer readout
Local Sidereal Time
17:25:53
Azimuth
40.587° NE
Elevation
-56.287°
Doppler factor
1
Orbital elements
Apogee altitude
2,404.087 km
Perigee altitude
359.979 km
Semi-major axis
7,760.17 km
Eccentricity
0.1317051
Inclination
51.4155°
RAAN
40.0887°
Arg. of periapsis
243.8746°
True anomaly
116.2128°
Mean anomaly
102.0915°
Eccentric anomaly
109.21716°
Mean motion
3.17495 °/min
BSTAR
0.0019095
Orbital period
113.39 mins
Loading maneuver chart data...
Loading SW <> Apogee altitude chart data...
Loading historical data...
Loading historical data...
Loading historical data...
Loading historical data...
Loading historical data...
Loading historical data...
Loading historical data...

FREGAT DEB Visibility forecast

Observer location: undefined°, undefined°

Span
Click to sort rows by Start time (UTC) header in descending order
Start Az.
Max El. time (UTC)
Max El. Az.
Max El.
End time (UTC)
End Az.
21 mins2025-05-14 18:23:55.919Z174.046° S2025-05-14 18:33:55.919Z115.707° SE28.841°2025-05-14 18:44:55.919Z63.996° ENE
25 mins2025-05-14 20:20:55.919Z224.303° SW2025-05-14 20:32:55.919Z104.723° ESE44.748°2025-05-14 20:45:55.919Z54.362° ENE
25 mins2025-05-14 22:21:55.919Z266.583° W2025-05-14 22:33:55.919Z339.991° N40.422°2025-05-14 22:46:55.919Z59.315° ENE
24 mins2025-05-15 00:23:55.919Z293.948° NW2025-05-15 00:36:55.919Z6.547° NNE37.982°2025-05-15 00:47:55.919Z80.284° E
21 mins2025-05-15 02:26:55.919Z306.353° NW2025-05-15 02:38:55.919Z40.931° NE44.161°2025-05-15 02:47:55.919Z117.62° SE
17 mins2025-05-15 04:27:55.919Z298.673° NW2025-05-15 04:37:55.919Z232.361° WSW33.464°2025-05-15 04:44:55.919Z170.613° S
|